Location: Bluff Heights
(33.7692°N, 118.1592°W)
Time: 11:26:44
(UTC+00:00)

Vanguard 2 Rocket - All Passes

Search period start: 03 August 2021 00:00
Search period end: 13 August 2021 00:00
Orbit: 555 x 3325 km, 32.9° (Epoch: 02 August)

Date Brightness Start Highest point End Pass type
(mag) Time Alt. Az. Time Alt. Az. Time Alt. Az.
03 Aug - 12:15:37 10° SSW 12:20:07 19° SSE 12:23:33 10° ESE visible
03 Aug - 14:28:23 10° WSW 14:32:59 54° SSE 14:36:49 10° E daylight
03 Aug - 16:41:38 10° W 16:45:33 79° S 16:50:09 10° E daylight
03 Aug - 18:54:06 10° W 18:58:19 40° SSW 19:04:33 10° SE daylight
03 Aug - 21:08:11 10° WSW 21:12:00 16° SSW 21:16:58 10° S daylight
04 Aug - 11:16:15 10° S 11:20:22 15° SSE 11:23:38 10° ESE visible
04 Aug - 13:28:23 10° SW 13:33:42 41° SSE 13:37:34 10° E daylight
04 Aug - 15:42:09 10° W 15:46:18 81° S 15:50:22 10° E daylight
04 Aug - 17:54:58 10° W 17:58:54 51° SSW 18:04:13 10° ESE daylight
04 Aug - 20:08:10 10° WSW 20:12:05 20° SSW 20:17:23 10° SSE daylight
05 Aug - 10:17:38 10° S 10:20:21 12° SSE 10:22:44 10° SE visible
05 Aug - 12:28:10 10° SW 12:34:14 32° SSE 12:38:23 10° E visible
05 Aug - 14:42:18 10° WSW 14:47:02 73° S 14:50:56 10° E daylight
05 Aug - 16:55:45 10° W 16:59:37 64° S 17:04:10 10° ESE daylight
05 Aug - 19:08:38 10° WSW 19:12:24 25° SSW 19:17:32 10° SSE daylight
06 Aug - 11:27:52 10° SSW 11:34:33 26° SSE 11:39:05 10° ESE visible
06 Aug - 13:42:04 10° WSW 13:47:44 61° SSE 13:51:47 10° E daylight
06 Aug - 15:56:15 10° W 16:00:23 77° S 16:04:26 10° E daylight
06 Aug - 18:09:17 10° W 18:12:57 32° SSW 18:17:42 10° SE daylight
06 Aug - 20:25:59 10° SSW 20:26:17 10° SSW 20:26:35 10° SSW daylight
07 Aug - 10:27:37 10° SSW 10:34:37 21° SSE 10:39:30 10° ESE visible
07 Aug - 12:41:28 10° WSW 12:48:19 49° SSE 12:52:44 10° E visible
07 Aug - 14:56:22 10° W 15:01:08 81° S 15:05:03 10° E daylight
07 Aug - 17:09:55 10° W 17:13:40 44° SSW 17:17:59 10° SE daylight
07 Aug - 19:24:05 10° SW 19:26:31 14° SSW 19:29:25 10° S daylight
08 Aug - 09:27:43 10° S 09:34:23 17° SSE 09:39:22 10° ESE visible
08 Aug - 11:40:37 10° SW 11:48:42 41° SSE 11:53:41 10° E visible
08 Aug - 13:56:00 10° W 14:01:49 77° S 14:05:55 10° E daylight
08 Aug - 16:10:22 10° W 16:14:27 60° SSW 16:18:27 10° ESE daylight
08 Aug - 18:24:01 10° WSW 18:26:59 19° SSW 18:30:31 10° SSE daylight
09 Aug - 08:28:43 10° S 08:33:51 13° SSE 08:38:07 10° SE visible
09 Aug - 10:39:40 10° SW 10:48:48 34° SSE 10:54:29 10° E visible
09 Aug - 12:55:11 10° WSW 13:02:23 68° S 13:06:55 10° E daylight
09 Aug - 15:10:28 10° W 15:15:14 76° S 15:19:08 10° ESE daylight
09 Aug - 17:24:18 10° W 17:27:38 27° SSW 17:31:24 10° SE daylight
10 Aug - 09:38:46 10° SSW 09:48:37 28° SSE 09:55:00 10° E visible
10 Aug - 11:53:59 10° WSW 12:02:46 58° SSE 12:07:57 10° E visible
10 Aug - 14:10:05 10° W 14:15:55 82° S 14:20:00 10° E daylight
10 Aug - 16:24:33 10° W 16:28:27 40° SSW 16:32:14 10° SE daylight
11 Aug - 08:38:11 10° SSW 08:48:07 23° SSE 08:55:01 10° ESE visible
11 Aug - 10:52:32 10° SW 11:02:55 49° SSE 11:08:55 10° E visible
11 Aug - 13:09:09 10° W 13:16:28 80° S 13:21:01 10° E daylight
11 Aug - 15:24:34 10° W 15:29:16 59° SSW 15:33:07 10° ESE daylight
11 Aug - 17:39:19 10° WSW 17:41:34 15° SSW 17:43:58 10° S daylight
12 Aug - 07:38:17 10° S 07:47:18 18° SSE 07:54:11 10° ESE visible
12 Aug - 09:51:01 10° SW 10:02:45 41° SSE 10:09:42 10° E visible
12 Aug - 12:07:43 10° WSW 12:16:51 73° S 12:22:06 10° E visible
12 Aug - 14:24:09 10° W 14:30:00 76° S 14:34:06 10° ESE daylight
12 Aug - 16:38:59 10° W 16:42:20 24° SSW 16:45:35 10° SSE daylight
